Meteo Giornale » Osservazioni meteo Russia » Ekaterinburg
ore: 04:00 - Osservazioni Meteo Ekaterinburg
Lat. 56° 50' N Lon. 60° 38' E Alt. 237 metri s.l.m.
7 °C
Sereno
Temp. 24 Ore
6 °C
12 °C
Nord-Ovest
18 Km/h
Dew point 4 °C
Umidità 81 %
Visibilità 10 Km
Il sole sorge alle ore 05:59
Il sole tramonta alle ore 19:55
| Data e Ora | Cielo e Fenomeni | T °C | DP °C | Um. % | Pres. hPa | Vis. km | Vento km/h | |
|---|---|---|---|---|---|---|---|---|
| Oggi h: 04:00 | Sereno | 7 | 4 | 81 | 1017 | 10 | NO 18 | |
| Oggi h: 03:30 | Sereno | 7 | 4 | 81 | 1017 | 10 | NO 18 | |
| Oggi h: 03:00 | Sereno | 6 | 4 | 86 | 1017 | 10 | NO 18 | |
| Oggi h: 02:30 | Sereno | 6 | 4 | 86 | 1017 | 10 | O/NO 14.4 | |
| Oggi h: 02:00 | Sereno | 6 | 4 | 86 | 1017 | 10 | O/NO 10.8 | |
| Oggi h: 01:30 | Nuvoloso | 7 | 4 | 81 | 1017 | 10 | NO 18 | |
| Oggi h: 01:00 | Nuvoloso | 7 | 4 | 81 | 1017 | 10 | NO 21.6 | |
| Oggi h: 00:30 | Nuvoloso | 8 | 4 | 75 | 1016 | 10 | O/NO 21.6 | |
| Oggi h: 00:00 | Nuvoloso | 8 | 4 | 75 | 1017 | 10 | O/NO 21.6 | |
| Ieri h: 23:30 | Nuvoloso | 8 | 3 | 70 | 1017 | 10 | O/NO 25.2 | |
| Ieri h: 23:00 | Nuvoloso | 8 | 3 | 70 | 1016 | 10 | O/NO 21.6 | |
| Ieri h: 22:30 | Pioggia | 8 | 4 | 75 | 1016 | 10 | O/NO 21.6 | |
| Ieri h: 22:12 | Pioggia | 8 | 4 | 75 | 1016 | 10 | O/NO 25.2 | |
| Ieri h: 22:00 | Pioggia | 8 | 4 | 75 | 1016 | 10 | O/NO 21.6 | |
| Ieri h: 21:58 | Pioggia | 8 | 4 | 75 | 1017 | 10 | O/NO 21.6 | |
| Ieri h: 21:30 | Pioggia | 8 | 4 | 75 | 1017 | 10 | O/NO 25.2 | |
| Ieri h: 21:00 | Nuvoloso | 9 | 4 | 70 | 1017 | 10 | O 28.8 | |
| Ieri h: 20:30 | Nuvoloso | 9 | 3 | 66 | 1016 | 10 | O/NO 25.2 | |
| Ieri h: 20:00 | Nuvoloso | 8 | 3 | 70 | 1016 | 10 | O 28.8 | |
| Ieri h: 19:30 | Nuvoloso | 9 | 3 | 66 | 1016 | 10 | O 32.4 | |
| Ieri h: 19:13 | Nuvoloso | 9 | 4 | 70 | 1016 | 10 | O 28.8 | |
| Ieri h: 19:01 | Nuvoloso | 9 | 4 | 70 | 1016 | 10 | O/NO 28.8 | |
| Ieri h: 19:00 | Nuvoloso | 9 | 4 | 70 | 1016 | 10 | O/NO 32.4 | |
| Ieri h: 18:38 | Nuvoloso | 9 | 5 | 75 | 1016 | 10 | O 28.8 | |
| Ieri h: 18:30 | Pioggia | 9 | 5 | 75 | 1016 | 10 | O/NO 28.8 | |
| Ieri h: 18:24 | Pioggia | 10 | 4 | 66 | 1016 | 10 | O/NO 32.4 | |
| Ieri h: 18:13 | Nuvoloso | 10 | 4 | 66 | 1016 | 10 | O/NO 28.8 | |
| Ieri h: 18:00 | Nuvoloso | 10 | 4 | 66 | 1016 | 10 | O 28.8 | |
| Ieri h: 17:30 | Pioggia | 10 | 4 | 66 | 1016 | 10 | O/NO 32.4 | |
| Ieri h: 17:23 | Nuvoloso | 11 | 4 | 61 | 1016 | 10 | O 28.8 | |
| Ieri h: 17:00 | Pioggia | 10 | 4 | 66 | 1016 | 10 | O/NO 28.8 | |
| Ieri h: 16:56 | Pioggia | 11 | 4 | 61 | 1015 | 10 | O/NO 28.8 | |
| Ieri h: 16:30 | Nuvoloso | 10 | 4 | 66 | 1016 | 10 | O 28.8 | |
| Ieri h: 16:24 | Nuvoloso | 11 | 4 | 61 | 1016 | 10 | O 28.8 | |
| Ieri h: 16:06 | Nuvoloso | 11 | 3 | 57 | 1015 | 10 | O/NO 36 | |
| Ieri h: 16:00 | Pioggia | 10 | 4 | 66 | 1015 | 10 | O/NO 32.4 | |
| Ieri h: 15:52 | Nuvoloso | 11 | 4 | 61 | 1015 | 10 | O 25.2 | |
| Ieri h: 15:49 | Nuvoloso | 11 | 4 | 61 | 1015 | 10 | O 28.8 | |
| Ieri h: 15:30 | Nuvoloso | 11 | 4 | 61 | 1015 | 10 | O 25.2 | |
| Ieri h: 15:28 | Nuvoloso | 11 | 4 | 61 | 1015 | 10 | O 25.2 | |
| Ieri h: 15:00 | Nuvoloso | 11 | 4 | 61 | 1015 | 10 | O 25.2 | |
| Ieri h: 14:47 | Molto Nuvoloso | 12 | 5 | 62 | 1015 | 10 | O 32.4 | |
| Ieri h: 14:30 | Molto Nuvoloso | 11 | 4 | 61 | 1016 | 10 | O 25.2 | |
| Ieri h: 14:00 | Molto Nuvoloso | 11 | 3 | 57 | 1016 | 10 | O 28.8 | |
| Ieri h: 13:30 | Coperto | 10 | 2 | 57 | 1016 | 10 | O 25.2 | |
| Ieri h: 13:00 | Coperto | 10 | 3 | 61 | 1016 | 10 | O/NO 28.8 | |
| Ieri h: 12:30 | Coperto | 10 | 3 | 61 | 1016 | 10 | O/NO 28.8 | |
| Ieri h: 12:19 | Coperto | 10 | 3 | 61 | 1016 | 10 | O/NO 25.2 | |
| Ieri h: 12:00 | Coperto | 10 | 3 | 61 | 1016 | 10 | O/NO 32.4 | |
| Ieri h: 11:53 | Coperto | 9 | 2 | 61 | 1016 | 10 | O/NO 28.8 | |
| Ieri h: 11:30 | Molto Nuvoloso | 9 | 2 | 61 | 1016 | 10 | NO 28.8 | |
| Ieri h: 11:11 | Molto Nuvoloso | 9 | 3 | 66 | 1016 | 10 | O/NO 28.8 | |
| Ieri h: 11:00 | Molto Nuvoloso | 9 | 3 | 66 | 1017 | 10 | O/NO 36 | |
| Ieri h: 10:50 | Molto Nuvoloso | 9 | 4 | 70 | 1017 | 10 | O/NO 25.2 | |
| Ieri h: 10:30 | Molto Nuvoloso | 9 | 3 | 66 | 1017 | 10 | NO 32.4 | |
| Ieri h: 10:20 | Molto Nuvoloso | 9 | 3 | 66 | 1017 | 10 | O/NO 25.2 | |
| Ieri h: 10:05 | Molto Nuvoloso | 9 | 4 | 70 | 1017 | 10 | O/NO 25.2 | |
| Ieri h: 10:00 | Molto Nuvoloso | 9 | 4 | 70 | 1017 | 10 | NO 28.8 | |
| Ieri h: 09:30 | Molto Nuvoloso | 8 | 5 | 81 | 1017 | 10 | NO 21.6 | |
| Ieri h: 09:00 | Molto Nuvoloso | 8 | 4 | 75 | 1017 | 10 | NO 25.2 | |
| Ieri h: 08:41 | Molto Nuvoloso | 8 | 5 | 81 | 1017 | 10 | O/NO 25.2 | |
| Ieri h: 08:30 | Molto Nuvoloso | 8 | 5 | 81 | 1017 | 10 | O/NO 25.2 | |
| Ieri h: 08:29 | Molto Nuvoloso | 7 | 6 | 93 | 1017 | 10 | O/NO 25.2 | |
| Ieri h: 08:00 | Molto Nuvoloso | 7 | 6 | 93 | 1017 | 10 | O 25.2 | |
| Ieri h: 07:30 | Molto Nuvoloso | 7 | 6 | 93 | 1017 | 10 | O 21.6 | |
| Ieri h: 07:00 | Molto Nuvoloso | 7 | 6 | 93 | 1017 | 10 | O 18 | |
| Ieri h: 06:30 | Molto Nuvoloso | 7 | 6 | 93 | 1017 | 10 | O/NO 18 | |
| Ieri h: 06:00 | Molto Nuvoloso | 7 | 6 | 93 | 1017 | 10 | O/NO 18 | |
| Ieri h: 05:30 | Molto Nuvoloso | 7 | 6 | 93 | 1017 | 10 | O/NO 18 | |
| Ieri h: 05:00 | Molto Nuvoloso | 6 | 6 | 100 | 1017 | 10 | O/NO 18 | |



